| time (UTC) | temp F | wind direction | speed MPH | gust MPH | rain 1hr in | rain 24hr in | rain mn in | humidity % | barometer mb |
| 20260506173035 | 60 | 137 | 3.0 | 13.0 | 0.02 | 0.02 | 0.02 | 87 | 1006.3 |
| 20260506171533 | 61 | 0 | 0.0 | 0.0 | 0.00 | 0.00 | 0.00 | 86 | 1006.7 |
| 20260506171528 | 61 | 180 | 0.0 | 2.0 | 0.00 | 0.00 | 0.00 | 86 | 1006.1 |
| 20260506170047 | 62 | 175 | 0.0 | 0.0 | 0.00 | 0.00 | 0.00 | 82 | 1006.6 |
| 20260506170032 | 62 | 0 | 0.0 | 0.0 | 0.00 | 0.00 | 0.00 | 81 | 1007.2 |
| 20260506164546 | 63 | 158 | 0.0 | 0.0 | 0.00 | 0.00 | 0.00 | 78 | 1006.7 |
| 20260506164532 | 63 | 0 | 0.0 | 0.0 | 0.00 | 0.00 | 0.00 | 78 | 1007.3 |
| 20260506163052 | 64 | 0 | 0.0 | 0.0 | 0.00 | 0.00 | 0.00 | 76 | 1007.2 |
| 20260506163044 | 64 | 156 | 0.0 | 0.0 | 0.00 | 0.00 | 0.00 | 76 | 1006.5 |
| 20260506161546 | 65 | 161 | 0.0 | 0.0 | 0.00 | 0.00 | 0.00 | 74 | 1006.4 |
| 20260506161533 | 65 | 0 | 0.0 | 0.0 | 0.00 | 0.00 | 0.00 | 74 | 1007.1 |
| 20260506160051 | 65 | 182 | 0.0 | 0.0 | 0.00 | 0.00 | 0.00 | 73 | 1006.6 |
| 20260506160032 | 65 | 0 | 0.0 | 0.0 | 0.00 | 0.00 | 0.00 | 73 | 1007.2 |
| 20260506154542 | 66 | 184 | 0.0 | 0.0 | 0.00 | 0.00 | 0.00 | 73 | 1006.9 |
| 20260506154539 | 66 | 0 | 0.0 | 0.0 | 0.00 | 0.00 | 0.00 | 72 | 1007.5 |
| 20260506153104 | 66 | 182 | 0.0 | 0.0 | 0.00 | 0.00 | 0.00 | 74 | 1006.9 |
| 20260506153030 | 66 | 0 | 0.0 | 0.0 | 0.00 | 0.00 | 0.00 | 73 | 1007.5 |
| 20260506151552 | 66 | 160 | 0.0 | 0.0 | 0.00 | 0.00 | 0.00 | 73 | 1006.9 |
| 20260506151530 | 66 | 0 | 0.0 | 0.0 | 0.00 | 0.00 | 0.00 | 73 | 1007.5 |
| 20260506150135 | 66 | 186 | 0.0 | 0.0 | 0.00 | 0.00 | 0.00 | 74 | 1006.8 |
| 20260506150030 | 66 | 0 | 0.0 | 0.0 | 0.00 | 0.00 | 0.00 | 73 | 1007.4 |
| 20260506144534 | 66 | 142 | 0.0 | 0.0 | 0.00 | 0.00 | 0.00 | 74 | 1006.9 |
| 20260506144532 | 66 | 0 | 0.0 | 0.0 | 0.00 | 0.00 | 0.00 | 73 | 1007.5 |
| 20260506143043 | 65 | 0 | 0.0 | 0.0 | 0.00 | 0.00 | 0.00 | 73 | 1007.7 |
| 20260506143034 | 66 | 190 | 0.0 | 0.0 | 0.00 | 0.00 | 0.00 | 74 | 1007.1 |
| 20260506141536 | 65 | 0 | 0.0 | 0.0 | 0.00 | 0.00 | 0.00 | 74 | 1007.7 |
| 20260506141532 | 65 | 142 | 0.0 | 0.0 | 0.00 | 0.00 | 0.00 | 75 | 1007.1 |
| 20260506140052 | 65 | 143 | 0.0 | 0.0 | 0.00 | 0.00 | 0.00 | 76 | 1007.0 |
| 20260506140032 | 65 | 0 | 0.0 | 0.0 | 0.00 | 0.00 | 0.00 | 75 | 1007.7 |
| 20260506134551 | 64 | 163 | 0.0 | 0.0 | 0.00 | 0.00 | 0.00 | 77 | 1007.2 |
| 20260506134530 | 64 | 0 | 0.0 | 0.0 | 0.00 | 0.00 | 0.00 | 76 | 1007.9 |
| 20260506133049 | 64 | 198 | 0.0 | 0.0 | 0.00 | 0.00 | 0.00 | 80 | 1006.9 |
| 20260506133032 | 64 | 0 | 0.0 | 0.0 | 0.00 | 0.00 | 0.00 | 79 | 1007.5 |
| 20260506131552 | 63 | 148 | 0.0 | 0.0 | 0.00 | 0.00 | 0.00 | 80 | 1007.1 |
| 20260506131534 | 63 | 0 | 0.0 | 0.0 | 0.00 | 0.00 | 0.00 | 79 | 1007.8 |
| 20260506130034 | 62 | 0 | 0.0 | 0.0 | 0.00 | 0.00 | 0.00 | 82 | 1007.8 |
| 20260506124542 | 61 | 167 | 0.0 | 0.0 | 0.00 | 0.00 | 0.00 | 83 | 1007.5 |
| 20260506124534 | 61 | 0 | 0.0 | 0.0 | 0.00 | 0.00 | 0.00 | 82 | 1008.1 |
| 20260506123041 | 60 | 196 | 0.0 | 0.0 | 0.00 | 0.00 | 0.00 | 84 | 1007.8 |
| 20260506123035 | 60 | 0 | 0.0 | 0.0 | 0.00 | 0.00 | 0.00 | 83 | 1008.3 |
| 20260506121540 | 59 | 142 | 0.0 | 0.0 | 0.00 | 0.00 | 0.00 | 86 | 1007.9 |
| 20260506121538 | 59 | 0 | 0.0 | 0.0 | 0.00 | 0.00 | 0.00 | 85 | 1008.4 |
| 20260506120032 | 59 | 0 | 0.0 | 0.0 | 0.00 | 0.00 | 0.00 | 86 | 1008.3 |
| 20260506120021 | 59 | 137 | 0.0 | 0.0 | 0.00 | 0.00 | 0.00 | 87 | 1007.7 |
| 20260506114538 | 58 | 0 | 0.0 | 0.0 | 0.00 | 0.00 | 0.00 | 87 | 1008.3 |
| 20260506114522 | 58 | 132 | 0.0 | 0.0 | 0.00 | 0.00 | 0.00 | 88 | 1007.8 |
| 20260506113032 | 57 | 0 | 0.0 | 0.0 | 0.00 | 0.00 | 0.00 | 88 | 1008.5 |
| 20260506111538 | 57 | 0 | 0.0 | 0.0 | 0.00 | 0.00 | 0.00 | 89 | 1008.4 |
| 20260506111517 | 57 | 86 | 0.0 | 0.0 | 0.00 | 0.00 | 0.00 | 89 | 1007.9 |
| 20260506110032 | 56 | 0 | 0.0 | 0.0 | 0.00 | 0.00 | 0.00 | 89 | 1008.8 |
| 20260506110014 | 56 | 144 | 0.0 | 0.0 | 0.00 | 0.00 | 0.00 | 90 | 1008.2 |
| 20260506104533 | 56 | 0 | 0.0 | 0.0 | 0.00 | 0.00 | 0.00 | 90 | 1008.5 |
| 20260506104511 | 56 | 136 | 0.0 | 0.0 | 0.00 | 0.00 | 0.00 | 91 | 1008.0 |
| 20260506103030 | 55 | 0 | 0.0 | 4.0 | 0.00 | 0.00 | 0.00 | 91 | 1008.7 |
| 20260506103012 | 55 | 123 | 0.0 | 3.0 | 0.00 | 0.00 | 0.00 | 91 | 1008.2 |
| 20260506101533 | 55 | 164 | 1.0 | 4.0 | 0.00 | 0.00 | 0.00 | 90 | 1008.4 |
| 20260506101509 | 55 | 164 | 1.0 | 3.0 | 0.00 | 0.00 | 0.00 | 91 | 1007.9 |
| 20260506100031 | 55 | 166 | 3.0 | 7.0 | 0.00 | 0.00 | 0.00 | 90 | 1008.3 |
| 20260506100009 | 55 | 166 | 3.0 | 7.0 | 0.00 | 0.00 | 0.00 | 91 | 1007.8 |
| 20260506094535 | 55 | 178 | 1.0 | 4.0 | 0.00 | 0.00 | 0.00 | 90 | 1008.3 |
| 20260506094504 | 55 | 177 | 1.0 | 4.0 | 0.00 | 0.00 | 0.00 | 91 | 1007.8 |
| 20260506093032 | 55 | 156 | 3.0 | 7.0 | 0.00 | 0.00 | 0.00 | 89 | 1008.3 |
| 20260506093001 | 55 | 156 | 3.0 | 7.0 | 0.00 | 0.00 | 0.00 | 89 | 1007.7 |
| 20260506091602 | 56 | 136 | 3.0 | 7.0 | 0.00 | 0.00 | 0.00 | 89 | 1007.7 |
| 20260506091530 | 56 | 137 | 3.0 | 6.0 | 0.00 | 0.00 | 0.00 | 89 | 1008.3 |
| 20260506090104 | 56 | 138 | 1.0 | 5.0 | 0.00 | 0.00 | 0.00 | 88 | 1007.8 |
| 20260506090032 | 56 | 138 | 1.0 | 5.0 | 0.00 | 0.00 | 0.00 | 88 | 1008.5 |
| 20260506084603 | 56 | 121 | 3.0 | 8.0 | 0.00 | 0.00 | 0.00 | 88 | 1007.8 |
| 20260506084532 | 56 | 119 | 2.0 | 9.0 | 0.00 | 0.00 | 0.00 | 87 | 1008.4 |
| 20260506083054 | 56 | 140 | 1.0 | 6.0 | 0.00 | 0.00 | 0.00 | 87 | 1007.9 |
| 20260506083033 | 56 | 140 | 2.0 | 6.0 | 0.00 | 0.00 | 0.00 | 87 | 1008.5 |
| 20260506081554 | 56 | 177 | 1.0 | 5.0 | 0.00 | 0.00 | 0.00 | 86 | 1007.9 |
| 20260506081531 | 56 | 177 | 1.0 | 6.0 | 0.00 | 0.00 | 0.00 | 86 | 1008.5 |
| 20260506073049 | 57 | 137 | 2.0 | 8.0 | 0.00 | 0.00 | 0.00 | 85 | 1007.7 |
| 20260506073038 | 57 | 105 | 3.0 | 8.0 | 0.00 | 0.00 | 0.00 | 85 | 1008.2 |
| 20260506071546 | 57 | 152 | 2.0 | 7.0 | 0.00 | 0.00 | 0.00 | 84 | 1007.9 |
| 20260506071532 | 57 | 167 | 2.0 | 8.0 | 0.00 | 0.00 | 0.00 | 84 | 1008.4 |
| 20260506061543 | 59 | 128 | 3.0 | 8.0 | 0.00 | 0.00 | 0.00 | 81 | 1007.5 |
| 20260506061536 | 59 | 126 | 3.0 | 10.0 | 0.00 | 0.00 | 0.00 | 80 | 1008.1 |
| 20260506044539 | 61 | 162 | 2.0 | 9.0 | 0.00 | 0.00 | 0.00 | 72 | 1008.7 |
| 20260506044527 | 61 | 162 | 2.0 | 9.0 | 0.00 | 0.00 | 0.00 | 73 | 1008.2 |
| 20260506043032 | 61 | 136 | 1.0 | 11.0 | 0.00 | 0.00 | 0.00 | 72 | 1008.8 |
| 20260506043025 | 61 | 136 | 1.0 | 10.0 | 0.00 | 0.00 | 0.00 | 73 | 1008.2 |
| 20260506041532 | 62 | 201 | 2.0 | 7.0 | 0.00 | 0.00 | 0.00 | 71 | 1008.6 |
| 20260506041524 | 62 | 166 | 2.0 | 7.0 | 0.00 | 0.00 | 0.00 | 71 | 1008.1 |
| 20260506040050 | 61 | 194 | 2.0 | 7.0 | 0.00 | 0.00 | 0.00 | 72 | 1008.7 |
| 20260506040024 | 61 | 173 | 3.0 | 13.0 | 0.00 | 0.00 | 0.00 | 73 | 1008.2 |
| 20260506034534 | 61 | 130 | 2.0 | 7.0 | 0.00 | 0.00 | 0.00 | 72 | 1008.7 |
| 20260506034523 | 61 | 138 | 2.0 | 7.0 | 0.00 | 0.00 | 0.00 | 72 | 1008.0 |
| 20260506033032 | 61 | 139 | 1.0 | 7.0 | 0.00 | 0.00 | 0.00 | 73 | 1008.8 |
| 20260506033020 | 61 | 139 | 1.0 | 7.0 | 0.00 | 0.00 | 0.00 | 73 | 1008.2 |
| 20260506031544 | 61 | 94 | 1.0 | 6.0 | 0.00 | 0.00 | 0.00 | 72 | 1008.7 |
| 20260506031520 | 61 | 96 | 2.0 | 6.0 | 0.00 | 0.00 | 0.00 | 72 | 1008.1 |
| 20260506030040 | 61 | 131 | 1.0 | 4.0 | 0.00 | 0.00 | 0.00 | 72 | 1008.0 |
| 20260506030031 | 61 | 131 | 1.0 | 7.0 | 0.00 | 0.00 | 0.00 | 71 | 1008.7 |
| 20260506024555 | 61 | 131 | 1.0 | 5.0 | 0.00 | 0.00 | 0.00 | 71 | 1008.0 |
| 20260506024530 | 61 | 131 | 1.0 | 6.0 | 0.00 | 0.00 | 0.00 | 71 | 1008.6 |
| 20260506023035 | 62 | 138 | 3.0 | 7.0 | 0.00 | 0.00 | 0.00 | 69 | 1007.9 |
| 20260506021534 | 63 | 135 | 2.0 | 7.0 | 0.00 | 0.00 | 0.00 | 68 | 1007.9 |
| 20260506021530 | 63 | 134 | 1.0 | 7.0 | 0.00 | 0.00 | 0.00 | 67 | 1008.5 |
| 20260506020045 | 63 | 179 | 2.0 | 7.0 | 0.00 | 0.00 | 0.00 | 67 | 1007.9 |
| 20260506020032 | 63 | 123 | 2.0 | 8.0 | 0.00 | 0.00 | 0.00 | 67 | 1008.5 |
| 20260506014549 | 63 | 111 | 1.0 | 6.0 | 0.00 | 0.00 | 0.00 | 68 | 1007.7 |
| 20260506014532 | 63 | 153 | 1.0 | 5.0 | 0.00 | 0.00 | 0.00 | 68 | 1008.4 |
| 20260506013100 | 63 | 187 | 2.0 | 8.0 | 0.00 | 0.00 | 0.00 | 65 | 1007.6 |
| 20260506013032 | 63 | 148 | 2.0 | 8.0 | 0.00 | 0.00 | 0.00 | 65 | 1008.2 |
| 20260506011546 | 64 | 188 | 1.0 | 8.0 | 0.00 | 0.00 | 0.00 | 65 | 1007.4 |
| 20260506011536 | 64 | 188 | 1.0 | 9.0 | 0.00 | 0.00 | 0.00 | 64 | 1008.0 |
| 20260506010038 | 65 | 205 | 3.0 | 10.0 | 0.00 | 0.00 | 0.00 | 62 | 1007.2 |
| 20260506004637 | 64 | 153 | 2.0 | 8.0 | 0.00 | 0.00 | 0.00 | 64 | 1007.0 |
| 20260506004530 | 64 | 198 | 2.0 | 9.0 | 0.00 | 0.00 | 0.00 | 64 | 1007.7 |
| 20260506003039 | 65 | 188 | 1.0 | 10.0 | 0.00 | 0.00 | 0.00 | 63 | 1006.9 |
| 20260506003030 | 65 | 207 | 0.0 | 10.0 | 0.00 | 0.00 | 0.00 | 62 | 1007.5 |
| 20260506001539 | 66 | 214 | 2.0 | 7.0 | 0.00 | 0.00 | 0.00 | 62 | 1006.4 |
| 20260506001532 | 66 | 202 | 2.0 | 8.0 | 0.00 | 0.00 | 0.00 | 61 | 1007.0 |
| 20260506000033 | 67 | 193 | 3.0 | 12.0 | 0.00 | 0.00 | 0.00 | 62 | 1006.2 |
| 20260505234536 | 67 | 196 | 0.0 | 0.0 | 0.00 | 0.00 | 0.00 | 60 | 1006.1 |
| 20260505234534 | 67 | 0 | 0.0 | 0.0 | 0.00 | 0.00 | 0.00 | 60 | 1006.8 |
| 20260505233031 | 68 | 0 | 0.0 | 0.0 | 0.00 | 0.00 | 0.00 | 59 | 1006.7 |
| 20260505231544 | 69 | 0 | 0.0 | 0.0 | 0.00 | 0.00 | 0.00 | 57 | 1006.4 |
| 20260505231535 | 69 | 225 | 0.0 | 0.0 | 0.00 | 0.00 | 0.00 | 57 | 1005.7 |
| 20260505230056 | 69 | 135 | 0.0 | 0.0 | 0.00 | 0.00 | 0.00 | 58 | 1005.7 |
| 20260505230033 | 69 | 0 | 0.0 | 0.0 | 0.00 | 0.00 | 0.00 | 57 | 1006.4 |
| 20260505224547 | 70 | 153 | 4.0 | 16.0 | 0.00 | 0.00 | 0.00 | 56 | 1005.4 |
| 20260505224532 | 70 | 178 | 6.0 | 19.0 | 0.00 | 0.00 | 0.00 | 56 | 1006.0 |
| 20260505223055 | 70 | 80 | 4.0 | 17.0 | 0.00 | 0.00 | 0.00 | 58 | 1005.4 |
| 20260505223029 | 70 | 199 | 3.0 | 17.0 | 0.00 | 0.00 | 0.00 | 57 | 1006.0 |
| 20260505221544 | 70 | 180 | 7.0 | 17.0 | 0.00 | 0.00 | 0.00 | 57 | 1005.4 |
| 20260505221532 | 70 | 186 | 6.0 | 15.0 | 0.00 | 0.00 | 0.00 | 56 | 1006.0 |
| 20260505220042 | 71 | 304 | 5.0 | 14.0 | 0.00 | 0.00 | 0.00 | 56 | 1005.5 |
| 20260505220038 | 71 | 146 | 5.0 | 17.0 | 0.00 | 0.00 | 0.00 | 56 | 1006.1 |
| 20260505214540 | 72 | 176 | 5.0 | 15.0 | 0.00 | 0.00 | 0.00 | 56 | 1005.5 |
| 20260505214536 | 71 | 138 | 5.0 | 17.0 | 0.00 | 0.00 | 0.00 | 55 | 1006.1 |
| 20260505213051 | 72 | 163 | 6.0 | 16.0 | 0.00 | 0.00 | 0.00 | 55 | 1005.2 |
| 20260505213034 | 72 | 134 | 4.0 | 16.0 | 0.00 | 0.00 | 0.00 | 54 | 1005.9 |
| 20260505211537 | 72 | 160 | 4.0 | 14.0 | 0.00 | 0.00 | 0.00 | 54 | 1005.2 |
| 20260505211532 | 72 | 99 | 5.0 | 14.0 | 0.00 | 0.00 | 0.00 | 54 | 1005.9 |
| 20260505210048 | 73 | 154 | 7.0 | 20.0 | 0.00 | 0.00 | 0.00 | 54 | 1005.1 |
| 20260505210032 | 73 | 178 | 7.0 | 23.0 | 0.00 | 0.00 | 0.00 | 53 | 1005.8 |
| 20260505204547 | 74 | 161 | 8.0 | 18.0 | 0.00 | 0.00 | 0.00 | 52 | 1005.0 |
| 20260505204534 | 74 | 162 | 8.0 | 18.0 | 0.00 | 0.00 | 0.00 | 52 | 1005.7 |
| 20260505203052 | 74 | 134 | 8.0 | 19.0 | 0.00 | 0.00 | 0.00 | 51 | 1005.0 |
| 20260505203033 | 74 | 173 | 6.0 | 19.0 | 0.00 | 0.00 | 0.00 | 51 | 1005.6 |
| 20260505201546 | 75 | 145 | 6.0 | 17.0 | 0.00 | 0.00 | 0.00 | 51 | 1005.1 |
| 20260505201533 | 75 | 128 | 5.0 | 18.0 | 0.00 | 0.00 | 0.00 | 50 | 1005.7 |
| 20260505200044 | 75 | 159 | 6.0 | 16.0 | 0.00 | 0.00 | 0.00 | 51 | 1005.4 |
| 20260505200039 | 75 | 129 | 6.0 | 17.0 | 0.00 | 0.00 | 0.00 | 50 | 1006.0 |
| 20260505194550 | 75 | 178 | 7.0 | 18.0 | 0.00 | 0.00 | 0.00 | 51 | 1005.2 |
| 20260505194529 | 75 | 162 | 5.0 | 18.0 | 0.00 | 0.00 | 0.00 | 50 | 1005.9 |
| 20260505193041 | 75 | 178 | 5.0 | 16.0 | 0.00 | 0.00 | 0.00 | 51 | 1005.3 |
| 20260505193029 | 75 | 127 | 6.0 | 16.0 | 0.00 | 0.00 | 0.00 | 51 | 1005.9 |
| 20260505191541 | 76 | 176 | 5.0 | 19.0 | 0.00 | 0.00 | 0.00 | 52 | 1005.4 |
| 20260505191530 | 76 | 128 | 5.0 | 20.0 | 0.00 | 0.00 | 0.00 | 51 | 1006.0 |
| 20260505190037 | 76 | 150 | 8.0 | 17.0 | 0.00 | 0.00 | 0.00 | 50 | 1006.2 |
| 20260505184533 | 76 | 205 | 5.0 | 19.0 | 0.00 | 0.00 | 0.00 | 49 | 1005.7 |
| 20260505184530 | 76 | 177 | 8.0 | 19.0 | 0.00 | 0.00 | 0.00 | 49 | 1006.3 |
| 20260505183033 | 76 | 93 | 5.0 | 13.0 | 0.00 | 0.00 | 0.00 | 51 | 1005.6 |
| 20260505181532 | 76 | 244 | 5.0 | 18.0 | 0.00 | 0.00 | 0.00 | 53 | 1005.7 |
| 20260505180052 | 77 | 143 | 4.0 | 18.0 | 0.00 | 0.00 | 0.00 | 53 | 1005.8 |
| 20260505180037 | 77 | 173 | 7.0 | 18.0 | 0.00 | 0.00 | 0.00 | 48 | 1006.4 |
| 20260505174552 | 77 | 126 | 4.0 | 16.0 | 0.00 | 0.00 | 0.00 | 50 | 1005.9 |
| 20260505174539 | 77 | 77 | 4.0 | 16.0 | 0.00 | 0.00 | 0.00 | 50 | 1006.5 |